Flag for Switzerland Weather past 2 weeks in Olten, Solothurn, Switzerland

Now
50 °F

Cool.


Feels Like: 45 °F
Forecast: 40 / 43 °F
Wind: 12 mph from Southwest

Location: Wynau

Current Time: Mar 31, 2015 at 5:04:17 AM

Latest Report: Mar 31, 2015 at 4:00 AM


Visibility: N/A

Pressure: 29.93 "Hg

Humidity: 88%

Dew point: 46 °F

Location of OltenLocation

Historic Weather in Olten — Graph

°F

Olten temperature yesterday

Maximum temperature yesterday: 53 °F (at 2:00 PM)
Minimum temperature yesterday: 47 °F (at 8:00 AM)
Average temperature yesterday: 50 °F

Past Weeks' High & Low Weather Summary

 TemperatureHumidityPressure
High64 °F (Mar 18, 4:00 PM)100% (Mar 24, 3:00 AM)30.34 "Hg (Mar 24, 3:00 AM)
Low29 °F (Mar 28, 7:00 AM)30% (Mar 24, 4:00 PM)29.61 "Hg (Mar 25, 1:00 PM)
Average45 °F78%30.04 "Hg
* Reported Mar 16 2:00 AM — Mar 31 3:00 AM, Olten, Weather by CustomWeather, © 2015

Note: Actual official high and low records may vary slightly from our data, if they occured in-between our weather recording intervals... More about our weather records

Advertising

Olten weather history for previous 24 hours

 ConditionsComfort  
Time TempWeatherWind HumidityBarometerVisibility
3:00 AM
Tue, Mar 31
49 °FCool.9 mph89%29.97 "HgN/A
2:00 AM48 °FCool.8 mph88%30.00 "HgN/A
1:00 AM47 °FCool.5 mph86%30.00 "HgN/A
12:00 AM48 °FCool.5 mph74%30.03 "HgN/A
11:00 PM
Mon, Mar 30
51 °FCool.12 mph61%30.03 "HgN/A
10:00 PM51 °FCool.13 mph63%30.02 "HgN/A
9:00 PM51 °FCool.10 mph65%30.03 "HgN/A
8:00 PM51 °FCool.13 mph64%29.98 "HgN/A
7:00 PM51 °FCool.10 mph62%29.97 "HgN/A
6:00 PM52 °FCool.15 mph64%29.94 "HgN/A
5:00 PM52 °FCool.10 mph66%29.92 "HgN/A
4:00 PM51 °FCool.10 mph71%29.93 "HgN/A
3:00 PM51 °FCool.7 mph77%29.90 "HgN/A
2:00 PM53 °FCool.12 mph81%29.86 "HgN/A
1:00 PM52 °FCool.15 mph83%29.84 "HgN/A
12:00 PM51 °FCool.10 mph93%29.83 "HgN/A
11:00 AM50 °FCool.12 mph93%29.80 "HgN/A
10:00 AM49 °FCool.12 mph96%29.77 "HgN/A
9:00 AM48 °FCool.12 mph95%29.76 "HgN/A
8:00 AM47 °FCool.10 mph95%29.75 "HgN/A
7:00 AM48 °FCool.13 mph90%29.75 "HgN/A
6:00 AM48 °FCool.9 mph91%29.74 "HgN/A
5:00 AM48 °FCool.12 mph92%29.73 "HgN/A
Weather by CustomWeather, © 2015

See weather overviewHow to use our weather pages